Weather in Djelfa

Algeria     34°39′25″N   3°15′06″E
temp.,
°C
wind,
m/s
gust,
m/s
humid.,
%
clouds,
%
prec.,
mm/h
press.,
hPa
HPBL,
m
25 february, thu
thu2501:00+6ese611876 0.0 1031236
04:00+5ese48840 0.0 1030134
07:00+4ese34840 0.0 103136
10:00+8ese58460 0.0 1031396
13:00+13ese56240 0.0 1028870
16:00+14ese45220 0.0 10261114
19:00+10ese34350 0.0 102639
22:00+8ese23440 0.0 102824
26 february, fri
fri2601:00+7sse34450 0.0 102826
04:00+6se34470 0.0 102726
07:00+5se34540 0.0 102824
10:00+10se45440 0.0 1028411
13:00+13ese55300 0.0 10261002
16:00+14ese55290 0.0 10241339
19:00+10ese45430 0.0 102490
22:00+8se34540 0.0 102658
27 february, sat
sat2701:00+7se33560 0.0 102527
04:00+6ese33590 0.0 102526
07:00+5ese34610 0.0 102534
10:00+9se68519 0.0 1025519
13:00+13se67364 0.0 10231065
16:00+13se55320 0.0 10211413
19:00+10se45440 0.0 102264
22:00+8se34530 0.0 102346
28 february, sun
sun2801:00+7se34550 0.0 102337
04:00+6se44580 0.0 102244
07:00+5se55630 0.0 102374
10:00+9se911450 0.0 1023586
13:00+13se89340 0.0 1022793
16:00+13se78350 0.0 1019826
19:00+10ese812450 0.0 1019363
22:00+8se1015440 0.0 1022297
1 march, mon
mon101:00+7se1015410 0.0 1023272
04:00+7se1116480 0.0 1022286
07:00+6se1217573 0.0 1022283
10:00+10se13184491 0.0 1022548
13:00+14se13163396 0.0 1020576
16:00+14ese131636100 0.0 1017597
19:00+11se121946100 0.0 1018491
22:00+9se101962100 0.0 1021603